カタログに戻る

ATLAS 5 CENTAUR DEB

運用中HEO
NORAD 43963·DEBRIS·🇺🇸 United States

打ち上げ Sep 17, 2014 から Cape Canaveral Space Force Station

Loading…

次のパス (今後24時間)

TLE

経年Source: Space-Track

元期: Sep 1, 2026, 00:00 UTC

1 43963U 14055S   26244.00065318 -.00000113  00000-0  00000-0 0  9997
2 43963  20.6784 117.0959 4922610 215.1490  99.3863  1.87928653 54895

AllMySatでATLAS 5 CENTAUR DEBをリアルタイム追跡

Download on the App Store